TimeMDT,TemperatureF,Dew PointF,Humidity,Sea Level PressureIn,VisibilityMPH,Wind Direction,Wind SpeedMPH,Gust SpeedMPH,PrecipitationIn,Events,Conditions,WindDirDegrees,DateUTC
12:53 AM,55.9,52.0,87,29.83,10.0,SSE,4.6,-,N/A,,Clear,160,2013-08-06 06:53:00
1:53 AM,55.9,52.0,87,29.83,10.0,Calm,Calm,-,N/A,,Clear,0,2013-08-06 07:53:00
2:53 AM,55.9,52.0,87,29.83,10.0,Calm,Calm,-,N/A,,Clear,0,2013-08-06 08:53:00
3:53 AM,57.9,53.1,84,29.86,10.0,West,10.4,-,N/A,,Clear,270,2013-08-06 09:53:00
4:53 AM,57.0,52.0,83,29.91,10.0,West,9.2,-,N/A,,Clear,280,2013-08-06 10:53:00
5:53 AM,54.0,51.1,90,29.91,10.0,West,5.8,-,N/A,,Clear,270,2013-08-06 11:53:00
6:53 AM,59.0,52.0,78,29.91,10.0,West,8.1,-,N/A,,Clear,270,2013-08-06 12:53:00
7:53 AM,63.0,53.1,70,29.94,10.0,NW,8.1,-,N/A,,Clear,310,2013-08-06 13:53:00
8:53 AM,66.9,48.9,52,29.94,10.0,North,8.1,-,N/A,,Clear,360,2013-08-06 14:53:00
9:53 AM,69.1,48.9,49,29.94,10.0,North,9.2,-,N/A,,Clear,360,2013-08-06 15:53:00
10:53 AM,72.0,46.9,41,29.93,10.0,NNE,6.9,-,N/A,,Partly Cloudy,30,2013-08-06 16:53:00
11:53 AM,72.0,46.0,40,29.95,10.0,Variable,5.8,-,N/A,,Clear,0,2013-08-06 17:53:00
12:53 PM,73.9,46.0,37,29.95,10.0,ENE,9.2,-,N/A,,Clear,60,2013-08-06 18:53:00
1:53 PM,77.0,48.0,36,29.94,10.0,NNW,9.2,-,N/A,,Clear,340,2013-08-06 19:53:00
2:53 PM,77.0,46.0,33,29.92,10.0,Calm,Calm,-,N/A,,Partly Cloudy,0,2013-08-06 20:53:00
3:53 PM,79.0,46.0,31,29.91,10.0,NNW,8.1,20.7,N/A,,Clear,340,2013-08-06 21:53:00
4:53 PM,75.0,46.9,37,29.92,10.0,NNW,4.6,19.6,N/A,,Scattered Clouds,330,2013-08-06 22:53:00
5:53 PM,75.9,48.0,37,29.93,10.0,NE,6.9,-,N/A,,Partly Cloudy,50,2013-08-06 23:53:00
6:53 PM,77.0,46.9,34,29.91,10.0,NNE,8.1,-,N/A,,Partly Cloudy,20,2013-08-07 00:53:00
7:53 PM,73.0,48.0,41,29.92,10.0,NNE,6.9,-,N/A,,Clear,30,2013-08-07 01:53:00
8:53 PM,59.0,53.1,81,29.97,10.0,Calm,Calm,-,N/A,,Clear,0,2013-08-07 02:53:00
9:53 PM,57.9,50.0,75,29.99,10.0,Calm,Calm,-,N/A,,Clear,0,2013-08-07 03:53:00
10:53 PM,55.0,50.0,83,29.99,10.0,SW,3.5,-,N/A,,Clear,230,2013-08-07 04:53:00
11:53 PM,54.0,51.1,90,30.01,10.0,Calm,Calm,-,N/A,,Clear,0,2013-08-07 05:53:00